DateTimeUTC,F1_A11,F1_S11,BsB_S11,BsG_S11,BsR_S11,BbsB_S11,BbsG_S11,BbsR_S11,BaB_A11,BaG_A11,BaR_A11,Tu_S11,T_S11,Uu_S11,U_S11,P_S11,T1_A11
2021-11-15T09:00:00Z,00000200,21000000,,,,,,,0000.27,0000.31,-000.25,20.4,27.1,,00.0,0625.9,31.2
2021-11-15T09:01:00Z,00000200,21000000,,,,,,,-000.07,0000.14,0000.13,20.4,27.1,,00.0,0625.9,31.2
2021-11-15T09:02:00Z,00000200,21000000,,,,,,,0000.10,-000.67,-000.48,20.3,27.1,,00.0,0625.9,31.2
2021-11-15T09:03:00Z,00000200,61000000,,,,,,,0162.08,0150.43,0121.32,20.3,27.1,,00.0,0625.9,31.1
2021-11-15T09:04:00Z,00000200,41000000,0007.71,0005.48,0003.29,0001.27,0001.26,0000.62,0107.01,0099.77,0081.65,20.3,27.0,,00.0,0626.7,31.1
2021-11-15T09:05:00Z,00000200,01000000,0000.32,0000.78,0000.24,0000.73,0000.27,0000.30,0018.10,0017.40,0013.84,20.3,26.9,,00.0,0626.8,31.1
2021-11-15T09:06:00Z,00000200,01000000,-000.10,0000.30,-000.01,0000.20,0000.20,0000.14,0006.01,0005.25,0004.23,20.3,26.9,,00.0,0626.9,31.2
2021-11-15T09:07:00Z,00000200,01000000,0001.44,0000.97,0000.84,0000.45,0000.19,-000.21,0021.17,0019.36,0016.01,20.4,26.9,,00.0,0626.8,31.2
2021-11-15T09:08:00Z,00000200,01000000,0007.30,0006.04,0003.98,0001.10,0001.55,0001.23,0090.13,0083.84,0067.62,20.4,26.9,,00.0,0626.8,31.1
2021-11-15T09:09:00Z,00000200,01000000,0011.58,0008.58,0005.37,0002.48,0002.16,0001.75,0149.35,0139.36,0113.50,20.5,26.9,,00.0,0626.8,31.2
2021-11-15T09:10:00Z,00000200,01000000,0007.29,0005.78,0003.63,0001.36,0001.41,0000.81,0094.71,0088.70,0072.11,20.5,26.9,,00.0,0626.9,31.2
2021-11-15T09:11:00Z,00000200,01000000,0008.73,0006.22,0004.38,0001.85,0001.33,0001.16,0108.50,0101.02,0082.32,20.6,27.0,,00.0,0626.8,31.2
2021-11-15T09:12:00Z,00000200,01000000,0005.90,0004.82,0002.75,0001.72,0001.33,0000.57,0080.08,0074.71,0061.79,20.5,27.0,,00.0,0626.8,31.2
2021-11-15T09:13:00Z,00000200,01000000,0003.13,0001.95,0001.06,0000.65,0000.70,0000.55,0039.34,0037.07,0029.76,20.5,27.0,,00.0,0626.8,31.2
2021-11-15T09:14:00Z,00000200,01000000,0003.03,0002.40,0001.74,0000.68,0000.65,0000.86,0043.22,0040.32,0032.34,20.4,26.9,,00.0,0626.8,31.1
2021-11-15T09:15:00Z,00000200,01000000,0003.08,0002.62,0001.45,0000.70,0000.54,-000.08,0045.12,0042.11,0034.47,20.4,26.9,,00.0,0626.7,31.1
2021-11-15T09:16:00Z,00000200,01000000,0006.53,0004.80,0003.00,0001.58,0000.84,0000.76,0081.24,0075.07,0061.10,20.3,26.9,,00.0,0626.7,31.1
2021-11-15T09:17:00Z,00000200,01000000,0011.47,0008.01,0005.02,0001.99,0001.78,0001.18,0136.03,0126.94,0103.36,20.2,26.8,,00.0,0626.8,31.1
2021-11-15T09:18:00Z,00000200,01000000,0008.36,0006.46,0004.10,0002.53,0001.85,0001.21,0106.87,0100.11,0081.92,20.2,26.8,,00.0,0626.8,31.1
2021-11-15T09:19:00Z,00000200,01000000,0006.61,0005.19,0003.35,0001.69,0001.40,0000.92,0091.42,0085.62,0069.82,20.1,26.8,,00.0,0626.8,31.1
2021-11-15T09:20:00Z,00000200,01000000,0008.14,0006.02,0003.65,0002.04,0001.25,0001.39,0096.43,0089.43,0073.15,20.1,26.7,,00.0,0626.8,31.1
2021-11-15T09:21:00Z,00000200,01000000,0005.13,0003.62,0002.35,0001.39,0000.81,0000.86,0065.23,0061.38,0049.89,20.1,26.7,,00.0,0626.9,31.1
2021-11-15T09:22:00Z,00000200,01000000,0004.01,0003.43,0001.81,0000.44,0000.79,0000.52,0056.21,0052.19,0043.01,20.1,26.7,,00.0,0626.8,31.1
2021-11-15T09:23:00Z,00000200,01000000,0001.09,0000.80,0000.26,0000.08,-000.05,0000.14,0014.80,0013.70,0011.35,20.2,26.7,,00.0,0626.8,31.1
2021-11-15T09:24:00Z,00000200,01000000,0000.74,0000.45,0000.18,0000.32,-000.04,-000.22,0007.59,0007.52,0006.29,20.2,26.7,,00.0,0626.8,31.1
2021-11-15T09:25:00Z,00000200,01000000,-000.05,-000.21,-000.04,0000.53,-000.24,-000.04,0001.38,0001.49,0000.91,20.3,26.8,,00.0,0626.8,31.1
2021-11-15T09:26:00Z,00000200,01000000,-000.39,0000.17,-000.12,0000.19,-000.19,-000.30,0000.67,0000.79,0000.36,20.4,26.8,,00.0,0626.9,31.1
2021-11-15T09:27:00Z,00000200,01000000,0000.22,-000.02,-000.23,0000.15,-000.03,0000.09,0000.32,0000.08,0000.42,20.4,26.8,,00.0,0626.9,31.2
2021-11-15T09:28:00Z,00000200,01000000,0000.34,0000.03,-000.02,-000.47,0000.01,0000.08,0000.68,0000.01,0000.23,20.5,26.9,,00.0,0626.9,31.2
2021-11-15T09:29:00Z,00000200,01000000,0000.02,0000.01,0000.12,0000.62,0000.02,0000.31,0000.69,0000.92,0000.60,20.5,26.9,,00.0,0626.9,31.2
2021-11-15T09:30:00Z,00000200,01000000,0000.37,-000.32,0000.27,0000.69,0000.19,0000.14,0000.27,0000.54,0000.24,20.6,26.9,,00.0,0626.9,31.2
2021-11-15T09:31:00Z,00000200,01000000,-000.02,-000.04,0000.22,0000.65,-000.04,0000.12,0001.04,0000.57,0000.55,20.5,26.9,,00.0,0626.9,31.2
2021-11-15T09:32:00Z,00000200,01000000,0000.77,0000.09,0000.00,0000.60,-000.11,0000.08,0000.50,0000.52,0000.58,20.5,26.9,,00.0,0626.9,31.2
2021-11-15T09:33:00Z,00000200,01000000,-000.15,-000.27,-000.16,0000.30,0000.34,-000.39,0000.19,0000.42,0000.27,20.4,26.9,,00.0,0626.8,31.1
2021-11-15T09:34:00Z,00000200,01000000,0000.23,-000.16,0000.23,0000.10,-000.28,0000.00,0000.57,0000.58,0000.53,20.3,26.9,,00.0,0626.8,31.1
2021-11-15T09:35:00Z,00000200,01000000,0000.11,0000.35,-000.08,0000.42,0000.09,-000.10,0000.82,0000.34,0000.35,20.3,26.8,,00.0,0626.8,31.1
2021-11-15T09:36:00Z,00000200,01000000,0000.19,-000.17,-000.22,0000.11,-000.16,-000.28,0000.25,0000.64,0000.36,20.3,26.8,,00.0,0626.8,31.1
2021-11-15T09:37:00Z,00000200,01000000,-000.37,-000.00,0000.03,0000.20,0000.18,0000.02,0000.62,0000.60,0000.83,20.3,26.8,,00.0,0626.8,31.1
2021-11-15T09:38:00Z,00000200,01000000,0000.14,-000.32,0000.08,-000.08,0000.21,-000.20,0000.15,-000.07,-000.58,20.4,26.8,,00.0,0626.9,31.1
2021-11-15T09:39:00Z,00000200,01000000,-000.35,-000.24,-000.21,-000.01,0000.15,0000.28,0000.28,0000.45,0000.97,20.4,26.8,,00.0,0627.0,31.2
2021-11-15T09:40:00Z,00000200,01000000,0000.04,-000.14,0000.14,0000.06,-000.23,-000.11,0000.69,0000.72,0000.03,20.5,26.9,,00.0,0627.0,31.2
2021-11-15T09:41:00Z,00000200,01000000,0000.60,-000.00,-000.00,0000.52,0000.19,0000.47,0000.25,-000.07,-000.00,20.5,26.9,,00.0,0627.1,31.2
2021-11-15T09:42:00Z,00000200,01000000,-000.50,0000.20,0000.08,0000.26,-000.08,0000.13,0000.36,-000.13,-000.14,20.6,26.9,,00.0,0627.1,31.2
2021-11-15T09:43:00Z,00000200,01000000,0000.07,-000.15,0000.02,-000.09,0000.05,0000.07,0000.01,0000.58,0000.61,20.6,26.9,,00.0,0627.1,31.2
2021-11-15T09:44:00Z,00000200,01000000,0000.09,0000.35,-000.27,0000.42,-000.15,0000.03,0000.49,0000.28,0000.27,20.6,27.0,,00.0,0627.1,31.2
2021-11-15T09:45:00Z,00000200,01000000,0000.10,0000.12,0000.02,-000.14,0000.30,-000.19,0000.29,0000.03,0000.27,20.5,27.0,,00.0,0627.1,31.1
2021-11-15T09:46:00Z,00000200,01000000,-000.02,-000.53,-000.35,0000.20,-000.01,-000.06,0000.40,0000.85,0000.14,20.4,26.9,,00.0,0627.0,31.2
2021-11-15T09:47:00Z,00000200,01000000,0000.18,0000.14,-000.21,-000.31,0000.00,0000.13,0000.17,0000.12,0000.25,20.4,26.9,,00.0,0627.0,31.1
2021-11-15T09:48:00Z,00000200,01000000,0000.48,-000.18,0000.01,0000.33,-000.08,-000.04,0000.12,0000.22,0000.00,20.3,26.8,,00.0,0627.0,31.1
2021-11-15T09:49:00Z,00000200,01000000,-000.28,0000.13,0000.33,0000.02,0000.09,0000.08,0000.59,0000.22,0000.25,20.2,26.8,,00.0,0627.0,31.1
2021-11-15T09:50:00Z,00000200,01000000,0000.04,0000.08,-000.03,0000.40,0000.03,-000.24,0000.43,0000.52,0000.71,20.2,26.8,,00.0,0627.0,31.1
2021-11-15T09:51:00Z,00000200,01000000,-000.68,-000.05,0000.02,-000.44,0000.02,0000.20,0000.36,0000.64,-000.28,20.2,26.7,,00.0,0626.9,31.1
2021-11-15T09:52:00Z,00000200,01000000,-000.17,0000.22,-000.16,0000.17,0000.18,-000.06,0001.13,0001.00,0001.19,20.2,26.7,,00.0,0626.9,31.1
2021-11-15T09:53:00Z,00000200,01000000,0000.62,0000.20,-000.34,-000.16,0000.25,0000.23,0001.64,0001.67,0001.62,20.3,26.8,,00.0,0626.9,31.1
2021-11-15T09:54:00Z,00000200,01000000,0000.40,0000.21,-000.20,0000.22,0000.17,-000.15,0000.89,0000.73,0000.25,20.3,26.8,,00.0,0627.0,31.2
2021-11-15T09:55:00Z,00000200,01000000,0000.12,-000.17,0000.25,-000.16,-000.23,0000.18,0000.92,0000.36,0000.69,20.4,26.8,,00.0,0627.0,31.1
2021-11-15T09:56:00Z,00000200,01000000,0000.85,0000.29,-000.13,-000.16,-000.14,-000.07,0004.20,0003.72,0002.93,20.4,26.8,,00.0,0627.0,31.1
2021-11-15T09:57:00Z,00000200,41000000,,,,,,,0001.56,0002.05,0001.85,20.5,26.9,,00.0,0627.0,31.2
2021-11-15T09:58:00Z,00000200,61000000,,,,,,,0000.52,0000.27,0000.27,20.2,27.0,,00.0,0626.1,31.2
2021-11-15T09:59:00Z,00000200,21000000,,,,,,,0000.25,0000.28,-000.01,20.3,27.1,,00.0,0626.1,31.2
